Location: Kawakawa
(35.3830°S, 174.0670°E)
Time: 01:57:25
(UTC+13:00)

Altair - Pass Details

Date: 10 December 2019
Orbit: 1502 x 1682 km, 47.2° (Epoch: 24 January)

Event Time Altitude Azimuth Distance (km) Brightness Sun altitude
Rises 15:25:35 0° 240° (WSW) 4,914 10.4 59.3°
Reaches altitude 10° 15:28:51 10° 235° (SW) 3,941 10.1 58.6°
Maximum altitude 15:38:52 58° 157° (SSE) 1,921 8.6 56.7°
Drops below altitude 10° 15:48:52 10° 78° (ENE) 3,936 9.4 54.7°
Sets 15:52:06 0° 74° (ENE) 4,907 9.8 54.0°
